This demonstration page uses our WeatherBlox Daily Observations layout. Learn more.

Left ArrowRight Arrow

39.51506, -84.39828

Hourly Observations for August 25, 2016

Temp ( °F °C ) Dew Point ( °F °C ) Humidity (%) Winds ( mph kmh ) Pressure ( in mb ) Visibility ( mi km ) Precip ( " mm )
12:15 am 00:15 Partly Cloudy 80 26.5 73 22.5 79 79 SSW 8 13 30.03 1017 10 16 N/A
12:35 am 00:35 Clear 80 26.5 72 22.3 78 78 SSW 9 15 30.03 1017 10 16 N/A
12:55 am 00:55 Clear 80 26.5 73 22.5 79 79 SW 8 13 30.03 1017 10 16 N/A
1:15 am 01:15 Clear 80 26.5 72 22.3 78 78 SSW 8 13 30.03 1017 10 16 N/A
1:35 am 01:35 Partly Cloudy 80 26.5 72 22.3 78 78 SSW 8 13 30.03 1017 10 16 N/A
1:55 am 01:55 Partly Cloudy 80 26.5 73 22.5 79 79 SSW 8 13 30.03 1017 10 16 N/A
2:15 am 02:15 Partly Cloudy 80 26.4 73 22.5 79 79 SSW 6 9 30.03 1017 10 16 N/A
2:35 am 02:35 Mostly Cloudy 80 26.5 73 22.5 79 79 S 7 11 30.03 1017 10 16 N/A
2:55 am 02:55 Mostly Cloudy 80 26.5 72 22.2 77 77 SSW 7 11 30.03 1017 10 16 N/A
3:15 am 03:15 Mostly Cloudy 80 26.5 73 22.5 79 79 SSW 6 9 30.03 1017 10 16 N/A
3:35 am 03:35 Partly Cloudy 77 25.1 71 21.5 81 81 SW 6 9 30.03 1017 10 16 N/A
3:55 am 03:55 Clear 77 25.1 71 21.6 81 81 SSW 7 11 30.06 1018 10 16 N/A
4:15 am 04:15 Clear 77 25.1 71 21.6 81 81 SSW 6 9 30.06 1018 10 16 N/A
4:35 am 04:35 Clear 77 25.1 71 21.8 82 82 SW 5 7 30.03 1017 10 16 N/A
4:55 am 04:55 Clear 77 25.1 72 22.1 83 83 N N/A 30.03 1017 10 16 N/A
5:15 am 05:15 Clear 77 25.1 72 22 83 83 SSW 6 9 30.03 1017 10 16 N/A
5:35 am 05:35 Clear 76 24.5 71 21.5 83 83 SSW 5 7 30.03 1017 10 16 N/A
5:55 am 05:55 Clear 77 25.1 72 22.1 83 83 SSW 6 9 30.03 1017 10 16 N/A
6:15 am 06:15 Clear 76 24.7 71 21.8 84 84 S 5 7 30.03 1017 10 16 N/A
6:35 am 06:35 Clear 77 25.1 72 22 83 83 N N/A 30.03 1017 10 16 N/A
6:55 am 06:55 Clear 76 24.2 71 21.4 84 84 SSW 3 6 30.06 1018 10 16 N/A
7:15 am 07:15 Sunny 74 23.6 69 20.7 84 84 N N/A 30.06 1018 7 11 N/A
7:35 am 07:35 Hazy 74 23.6 70 21 85 85 N N/A 30.06 1018 4 6 N/A
7:55 am 07:55 Hazy 74 23.6 70 21 85 85 N N/A 30.06 1018 5 8 N/A
8:15 am 08:15 Partly Cloudy 77 24.9 72 22.3 86 86 N N/A 30.06 1018 7 11 N/A
8:35 am 08:35 Partly Cloudy 78 25.7 73 22.6 83 83 SSW 5 7 30.06 1018 10 16 N/A
8:55 am 08:55 Sunny 80 26.5 73 22.8 80 80 SSW 5 7 30.06 1018 10 16 N/A
9:15 am 09:15 Partly Cloudy 80 26.5 73 22.7 80 80 SSW 8 13 30.06 1018 10 16 N/A
9:35 am 09:35 Cloudy 80 26.5 73 22.6 79 79 SW 6 9 30.06 1018 10 16 N/A
9:55 am 09:55 Cloudy 80 26.8 74 23.1 80 80 SW 6 9 30.06 1018 10 16 N/A
10:15 am 10:15 Cloudy 81 27.2 74 23.1 78 78 SSW 7 11 30.06 1018 10 16 N/A
10:35 am 10:35 Cloudy 81 27.2 73 23 78 78 SSW 8 13 30.06 1018 10 16 N/A
10:55 am 10:55 Cloudy 81 27.2 73 22.7 76 76 SSW 7 11 30.06 1018 10 16 N/A
11:15 am 11:15 Cloudy 82 27.7 74 23.2 77 77 SW 9 15 30.06 1018 10 16 N/A
11:35 am 11:35 Cloudy 82 28 74 23.2 75 75 SSW 8 13 30.06 1018 10 16 N/A
11:55 am 11:55 Cloudy 83 28.1 74 23.3 75 75 SSW 8 13 30.06 1018 10 16 N/A
12:15 pm 12:15 Mostly Cloudy 85 29.3 74 23.5 71 71 SSW 10 17 30.03 1017 10 16 N/A
12:35 pm 12:35 Mostly Cloudy 89 31.8 78 25.3 68 68 SSW 10 17 30.03 1017 10 16 N/A
12:55 pm 12:55 Mostly Cloudy 90 32.1 77 25.2 67 67 SW 13 20 30.03 1017 10 16 N/A
1:15 pm 13:15 Mostly Cloudy 89 31.4 76 24.6 67 67 SSW 12 19 30.03 1017 10 16 N/A
1:35 pm 13:35 Mostly Cloudy 90 32.1 76 24.4 64 64 SSW 10 17 30.03 1017 10 16 N/A
1:55 pm 13:55 Partly Cloudy 90 32.1 76 24.3 63 63 SSW 13 20 30.03 1017 10 16 N/A
2:15 pm 14:15 Mostly Cloudy 90 32.1 75 23.9 62 62 SW 10 17 30.03 1017 10 16 N/A
2:35 pm 14:35 Partly Cloudy 90 32.1 74 23.1 59 59 SSW 10 17 30.03 1017 10 16 N/A
2:55 pm 14:55 Partly Cloudy 90 32.1 74 23.2 59 59 SW 12 19 30.03 1017 10 16 N/A
3:15 pm 15:15 Sunny 90 32.1 73 22.5 57 57 SW 10 17 30.00 1016 10 16 N/A
3:35 pm 15:35 Partly Cloudy 90 32.1 71 21.8 54 54 SW 12 19 30.00 1016 10 16 N/A
3:55 pm 15:55 Partly Cloudy 90 32.1 69 20.6 51 51 WSW 9 15 30.00 1016 10 16 N/A
4:15 pm 16:15 Sunny 90 32.1 69 20.5 50 50 W 8 13 30.00 1016 10 16 N/A
4:35 pm 16:35 Partly Cloudy 90 32.1 68 20.1 49 49 SW 12 19 30.00 1016 10 16 N/A
4:55 pm 16:55 Partly Cloudy 90 32.2 68 20.2 49 49 SW 10 17 30.00 1016 10 16 N/A
5:15 pm 17:15 Sunny 90 32.1 68 20 49 49 SW 9 15 30.00 1016 10 16 N/A
5:35 pm 17:35 Partly Cloudy 90 32.1 68 19.9 48 48 SW 8 13 30.00 1016 10 16 N/A
5:55 pm 17:55 Sunny 90 32.1 68 20 49 49 SW 9 15 30.00 1016 10 16 N/A
6:15 pm 18:15 Sunny 90 32.1 69 20.3 50 50 SW 9 15 30.00 1016 10 16 N/A
6:35 pm 18:35 Sunny 90 32.1 69 20.8 51 51 SSW 10 17 30.00 1016 10 16 N/A
6:55 pm 18:55 Sunny 90 32.1 70 21 52 52 SW 9 15 30.00 1016 10 16 N/A
7:15 pm 19:15 Sunny 90 32.1 71 21.7 54 54 SW 7 11 30.00 1016 10 16 N/A
7:35 pm 19:35 Sunny 90 32.1 73 22.9 58 58 WSW 6 9 30.00 1016 10 16 N/A
7:55 pm 19:55 Sunny 85 29.7 71 21.4 61 61 WSW 6 9 30.00 1016 10 16 N/A
8:15 pm 20:15 Sunny 83 28.1 70 21.3 67 67 SW 3 6 30.03 1017 10 16 N/A
8:35 pm 20:35 Clear 81 27.4 71 21.6 71 71 WSW 3 6 30.03 1017 10 16 N/A
8:55 pm 20:55 Clear 80 26.9 71 21.8 74 74 SW 3 6 30.03 1017 10 16 N/A
9:15 pm 21:15 Clear 80 26.5 72 22.2 77 77 N N/A 30.03 1017 10 16 N/A
9:35 pm 21:35 Clear 80 26.5 73 22.6 79 79 N N/A 30.03 1017 10 16 N/A
9:55 pm 21:55 Clear 80 26.5 72 22.1 77 77 N N/A 30.06 1018 10 16 N/A
10:15 pm 22:15 Clear 80 26.5 72 22.2 77 77 N N/A 30.06 1018 10 16 N/A
10:35 pm 22:35 Clear 77 25.1 71 21.5 81 81 N N/A 30.06 1018 10 16 N/A
10:55 pm 22:55 Clear 77 25.1 72 22 83 83 N N/A 30.06 1018 10 16 N/A
11:15 pm 23:15 Clear 77 25.1 71 21.9 82 82 N N/A 30.06 1018 10 16 N/A
11:35 pm 23:35 Partly Cloudy 76 24.5 71 21.4 83 83 N N/A 30.06 1018 7 11 N/A
11:55 pm 23:55 Partly Cloudy 77 25 72 22.1 84 84 N N/A 30.06 1018 7 11 N/A

Powered by AerisWeather